Year,Month,Day,Hour,Minute,Value (Times are PST for temperature in C)
2022,10,02,00,00,11.30
2022,10,02,00,01,11.20
2022,10,02,00,02,11.20
2022,10,02,00,03,11.20
2022,10,02,00,04,11.20
2022,10,02,00,05,11.20
2022,10,02,00,06,11.20
2022,10,02,00,07,11.20
2022,10,02,00,08,11.10
2022,10,02,00,09,11.10
2022,10,02,00,10,11.10
2022,10,02,00,11,11.10
2022,10,02,00,12,11.10
2022,10,02,00,13,11.10
2022,10,02,00,14,11.10
2022,10,02,00,15,11.10
2022,10,02,00,16,11.10
2022,10,02,00,17,11.00
2022,10,02,00,18,11.00
2022,10,02,00,19,11.00
2022,10,02,00,20,10.90
2022,10,02,00,21,10.90
2022,10,02,00,22,10.90
2022,10,02,00,23,10.90
2022,10,02,00,24,10.90
2022,10,02,00,25,10.80
2022,10,02,00,26,10.80
2022,10,02,00,27,10.80
2022,10,02,00,28,10.80
2022,10,02,00,29,10.80
2022,10,02,00,30,10.80
2022,10,02,00,31,10.70
2022,10,02,00,32,10.70
2022,10,02,00,33,10.70
2022,10,02,00,34,10.70
2022,10,02,00,35,10.70
2022,10,02,00,36,10.70
2022,10,02,00,37,10.60
2022,10,02,00,38,10.60
2022,10,02,00,39,10.60
2022,10,02,00,40,10.60
2022,10,02,00,41,10.60
2022,10,02,00,42,10.50
2022,10,02,00,43,10.50
2022,10,02,00,44,10.50
2022,10,02,00,45,10.50
2022,10,02,00,46,10.40
2022,10,02,00,47,10.40
2022,10,02,00,48,10.40
2022,10,02,00,49,10.40
2022,10,02,00,50,10.40
2022,10,02,00,51,10.40
2022,10,02,00,52,10.40
2022,10,02,00,53,10.40
2022,10,02,00,54,10.40
2022,10,02,00,55,10.40
2022,10,02,00,56,10.30
2022,10,02,00,57,10.30
2022,10,02,00,58,10.30
2022,10,02,00,59,10.30
2022,10,02,01,00,10.30
2022,10,02,01,01,10.30
2022,10,02,01,02,10.20
2022,10,02,01,03,10.20
2022,10,02,01,04,10.20
2022,10,02,01,05,10.20
2022,10,02,01,06,10.20
2022,10,02,01,07,10.20
2022,10,02,01,08,10.20
2022,10,02,01,09,10.10
2022,10,02,01,10,10.10
2022,10,02,01,11,10.10
2022,10,02,01,12,10.10
2022,10,02,01,13,10.10
2022,10,02,01,14,10.10
2022,10,02,01,15,10.10
2022,10,02,01,16,10.10
2022,10,02,01,17,10.10
2022,10,02,01,18,10.00
2022,10,02,01,19,10.00
2022,10,02,01,20,10.00
2022,10,02,01,21,10.00
2022,10,02,01,22,10.00
2022,10,02,01,23,10.00
2022,10,02,01,24,9.90
2022,10,02,01,25,9.90
2022,10,02,01,26,9.90
2022,10,02,01,27,9.90
2022,10,02,01,28,9.90
2022,10,02,01,29,9.90
2022,10,02,01,30,9.90
2022,10,02,01,31,9.90
2022,10,02,01,32,9.90
2022,10,02,01,33,9.90
2022,10,02,01,34,9.90
2022,10,02,01,35,9.90
2022,10,02,01,36,10.00
2022,10,02,01,37,9.90
2022,10,02,01,38,10.00
2022,10,02,01,39,10.00
2022,10,02,01,40,10.00
2022,10,02,01,41,10.00
2022,10,02,01,42,10.00
2022,10,02,01,43,10.00
2022,10,02,01,44,10.10
2022,10,02,01,45,10.10
2022,10,02,01,46,10.10
2022,10,02,01,47,10.10
2022,10,02,01,48,10.10
2022,10,02,01,49,10.10
2022,10,02,01,50,10.10
2022,10,02,01,51,10.10
2022,10,02,01,52,10.10
2022,10,02,01,53,10.20
2022,10,02,01,54,10.20
2022,10,02,01,55,10.20
2022,10,02,01,56,10.20
2022,10,02,01,57,10.20
2022,10,02,01,58,10.30
2022,10,02,01,59,10.30
2022,10,02,02,00,10.30
2022,10,02,02,01,10.30
2022,10,02,02,02,10.30
2022,10,02,02,03,10.30
2022,10,02,02,04,10.30
2022,10,02,02,05,10.30
2022,10,02,02,06,10.30
2022,10,02,02,07,10.30
2022,10,02,02,08,10.30
2022,10,02,02,09,10.30
2022,10,02,02,10,10.30
2022,10,02,02,11,10.30
2022,10,02,02,12,10.30
2022,10,02,02,13,10.30
2022,10,02,02,14,10.30
2022,10,02,02,15,10.30
2022,10,02,02,16,10.30
2022,10,02,02,17,10.30
2022,10,02,02,18,10.30
2022,10,02,02,19,10.30
2022,10,02,02,20,10.30
2022,10,02,02,21,10.30
2022,10,02,02,22,10.30
2022,10,02,02,23,10.30
2022,10,02,02,24,10.30
2022,10,02,02,25,10.30
2022,10,02,02,26,10.30
2022,10,02,02,27,10.30
2022,10,02,02,28,10.20
2022,10,02,02,29,10.20
2022,10,02,02,30,10.20
2022,10,02,02,31,10.20
2022,10,02,02,32,10.20
2022,10,02,02,33,10.30
2022,10,02,02,34,10.30
2022,10,02,02,35,10.20
2022,10,02,02,36,10.20
2022,10,02,02,37,10.20
2022,10,02,02,38,10.20
2022,10,02,02,39,10.20
2022,10,02,02,40,10.20
2022,10,02,02,41,10.30
2022,10,02,02,42,10.30
2022,10,02,02,43,10.30
2022,10,02,02,44,10.30
2022,10,02,02,45,10.30
2022,10,02,02,46,10.30
2022,10,02,02,47,10.30
2022,10,02,02,48,10.30
2022,10,02,02,49,10.30
2022,10,02,02,50,10.30
2022,10,02,02,51,10.30
2022,10,02,02,52,10.30
2022,10,02,02,53,10.30
2022,10,02,02,54,10.30
2022,10,02,02,55,10.30
2022,10,02,02,56,10.20
2022,10,02,02,57,10.20
2022,10,02,02,58,10.20
2022,10,02,02,59,10.20
2022,10,02,03,00,10.20
2022,10,02,03,01,10.20
2022,10,02,03,02,10.20
2022,10,02,03,03,10.20
2022,10,02,03,04,10.20
2022,10,02,03,05,10.20
2022,10,02,03,06,10.20
2022,10,02,03,07,10.20
2022,10,02,03,08,10.20
2022,10,02,03,09,10.20
2022,10,02,03,10,10.20
2022,10,02,03,11,10.20
2022,10,02,03,12,10.10
2022,10,02,03,13,10.10
2022,10,02,03,14,10.10
2022,10,02,03,15,10.10
2022,10,02,03,16,10.00
2022,10,02,03,17,10.00
2022,10,02,03,18,9.90
2022,10,02,03,19,9.90
2022,10,02,03,20,9.90
2022,10,02,03,21,9.80
2022,10,02,03,22,9.80
2022,10,02,03,23,9.80
2022,10,02,03,24,9.80
2022,10,02,03,25,9.70
2022,10,02,03,26,9.70
2022,10,02,03,27,9.70
2022,10,02,03,28,9.70
2022,10,02,03,29,9.70
2022,10,02,03,30,9.70
2022,10,02,03,31,9.70
2022,10,02,03,32,9.60
2022,10,02,03,33,9.60
2022,10,02,03,34,9.60
2022,10,02,03,35,9.60
2022,10,02,03,36,9.60
2022,10,02,03,37,9.60
2022,10,02,03,38,9.50
2022,10,02,03,39,9.50
2022,10,02,03,40,9.50
2022,10,02,03,41,9.40
2022,10,02,03,42,9.40
2022,10,02,03,43,9.50
2022,10,02,03,44,9.50
2022,10,02,03,45,9.50
2022,10,02,03,46,9.50
2022,10,02,03,47,9.50
2022,10,02,03,48,9.50
2022,10,02,03,49,9.50
2022,10,02,03,50,9.50
2022,10,02,03,51,9.50
2022,10,02,03,52,9.50
2022,10,02,03,53,9.50
2022,10,02,03,54,9.40
2022,10,02,03,55,9.40
2022,10,02,03,56,9.40
2022,10,02,03,57,9.40
2022,10,02,03,58,9.40
2022,10,02,03,59,9.40
2022,10,02,04,00,9.40
2022,10,02,04,01,9.40
2022,10,02,04,02,9.40
2022,10,02,04,03,9.40
2022,10,02,04,04,9.40
2022,10,02,04,05,9.30
2022,10,02,04,06,9.30
2022,10,02,04,07,9.30
2022,10,02,04,08,9.30
2022,10,02,04,09,9.30
2022,10,02,04,10,9.30
2022,10,02,04,11,9.20
2022,10,02,04,12,9.20
2022,10,02,04,13,9.20
2022,10,02,04,14,9.20
2022,10,02,04,15,9.20
2022,10,02,04,16,9.10
2022,10,02,04,17,9.10
2022,10,02,04,18,9.10
2022,10,02,04,19,9.10
2022,10,02,04,20,9.10
2022,10,02,04,21,9.10
2022,10,02,04,22,9.10
2022,10,02,04,23,9.10
2022,10,02,04,24,9.00
2022,10,02,04,25,9.00
2022,10,02,04,26,9.10
2022,10,02,04,27,9.10
2022,10,02,04,28,9.10
2022,10,02,04,29,9.10
2022,10,02,04,30,9.10
2022,10,02,04,31,9.10
2022,10,02,04,32,9.10
2022,10,02,04,33,9.10
2022,10,02,04,34,9.10
2022,10,02,04,35,9.10
2022,10,02,04,36,9.10
2022,10,02,04,37,9.10
2022,10,02,04,38,9.10
2022,10,02,04,39,9.10
2022,10,02,04,40,9.10
2022,10,02,04,41,9.20
2022,10,02,04,42,9.20
2022,10,02,04,43,9.20
2022,10,02,04,44,9.20
2022,10,02,04,45,9.20
2022,10,02,04,46,9.20
2022,10,02,04,47,9.20
2022,10,02,04,48,9.20
2022,10,02,04,49,9.20
2022,10,02,04,50,9.20
2022,10,02,04,51,9.20
2022,10,02,04,52,9.20
2022,10,02,04,53,9.20
2022,10,02,04,54,9.20
2022,10,02,04,55,9.20
2022,10,02,04,56,9.20
2022,10,02,04,57,9.20
2022,10,02,04,58,9.20
2022,10,02,04,59,9.20
2022,10,02,05,00,9.20
2022,10,02,05,01,9.20
2022,10,02,05,02,9.20
2022,10,02,05,03,9.20
2022,10,02,05,04,9.10
2022,10,02,05,05,9.10
2022,10,02,05,06,9.10
2022,10,02,05,07,9.10
2022,10,02,05,08,9.10
2022,10,02,05,09,9.10
2022,10,02,05,10,9.10
2022,10,02,05,11,9.10
2022,10,02,05,12,9.10
2022,10,02,05,13,9.10
2022,10,02,05,14,9.20
2022,10,02,05,15,9.20
2022,10,02,05,16,9.20
2022,10,02,05,17,9.20
2022,10,02,05,18,9.20
2022,10,02,05,19,9.20
2022,10,02,05,20,9.20
2022,10,02,05,21,9.20
2022,10,02,05,22,9.20
2022,10,02,05,23,9.20
2022,10,02,05,24,9.20
2022,10,02,05,25,9.20
2022,10,02,05,26,9.20
2022,10,02,05,27,9.20
2022,10,02,05,28,9.20
2022,10,02,05,29,9.20
2022,10,02,05,30,9.10
2022,10,02,05,31,9.10
2022,10,02,05,32,9.10
2022,10,02,05,33,9.10
2022,10,02,05,34,9.10
2022,10,02,05,35,9.10
2022,10,02,05,36,9.10
2022,10,02,05,37,9.10
2022,10,02,05,38,9.00
2022,10,02,05,39,9.00
2022,10,02,05,40,9.00
2022,10,02,05,41,9.00
2022,10,02,05,42,8.90
2022,10,02,05,43,8.90
2022,10,02,05,44,8.90
2022,10,02,05,45,8.90
2022,10,02,05,46,8.90
2022,10,02,05,47,8.80
2022,10,02,05,48,8.80
2022,10,02,05,49,8.80
2022,10,02,05,50,8.80
2022,10,02,05,51,8.80
2022,10,02,05,52,8.80
2022,10,02,05,53,8.80
2022,10,02,05,54,8.80
2022,10,02,05,55,8.80
2022,10,02,05,56,8.80
2022,10,02,05,57,8.70
2022,10,02,05,58,8.70
2022,10,02,05,59,8.70
2022,10,02,06,00,8.70
2022,10,02,06,01,8.70
2022,10,02,06,02,8.70
2022,10,02,06,03,8.80
2022,10,02,06,04,8.80
2022,10,02,06,05,8.80
2022,10,02,06,06,8.80
2022,10,02,06,07,8.80
2022,10,02,06,08,8.80
2022,10,02,06,09,8.80
2022,10,02,06,10,8.80
2022,10,02,06,11,8.70
2022,10,02,06,12,8.70
2022,10,02,06,13,8.70
2022,10,02,06,14,8.70
2022,10,02,06,15,8.70
2022,10,02,06,16,8.70
2022,10,02,06,17,8.70
2022,10,02,06,18,8.70
2022,10,02,06,19,8.70
2022,10,02,06,20,8.70
2022,10,02,06,21,8.70
2022,10,02,06,22,8.70
2022,10,02,06,23,8.60
2022,10,02,06,24,8.60
2022,10,02,06,25,8.60
2022,10,02,06,26,8.60
2022,10,02,06,27,8.60
2022,10,02,06,28,8.60
2022,10,02,06,29,8.60
2022,10,02,06,30,8.60
2022,10,02,06,31,8.60
2022,10,02,06,32,8.60
2022,10,02,06,33,8.60
2022,10,02,06,34,8.60
2022,10,02,06,35,8.60
2022,10,02,06,36,8.60
2022,10,02,06,37,8.70
2022,10,02,06,38,8.70
2022,10,02,06,39,8.80
2022,10,02,06,40,8.80
2022,10,02,06,41,8.80
2022,10,02,06,42,8.80
2022,10,02,06,43,8.80
2022,10,02,06,44,8.80
2022,10,02,06,45,8.80
2022,10,02,06,46,8.80
2022,10,02,06,47,8.80
2022,10,02,06,48,8.80
2022,10,02,06,49,8.80
2022,10,02,06,50,8.80
2022,10,02,06,51,8.80
2022,10,02,06,52,8.80
2022,10,02,06,53,8.80
2022,10,02,06,54,8.80
2022,10,02,06,55,8.80
2022,10,02,06,56,8.80
2022,10,02,06,57,8.80
2022,10,02,06,58,8.80
2022,10,02,06,59,8.80
2022,10,02,07,00,8.70
2022,10,02,07,01,8.70
2022,10,02,07,02,8.70
2022,10,02,07,03,8.70
2022,10,02,07,04,8.70
2022,10,02,07,05,8.70
2022,10,02,07,06,8.70
2022,10,02,07,07,8.60
2022,10,02,07,08,8.60
2022,10,02,07,09,8.60
2022,10,02,07,10,8.60
2022,10,02,07,11,8.60
2022,10,02,07,12,8.60
2022,10,02,07,13,8.60
2022,10,02,07,14,8.60
2022,10,02,07,15,8.50
2022,10,02,07,16,8.50
2022,10,02,07,17,8.50
2022,10,02,07,18,8.50
2022,10,02,07,19,8.50
2022,10,02,07,20,8.50
2022,10,02,07,21,8.50
2022,10,02,07,22,8.50
2022,10,02,07,23,8.60
2022,10,02,07,24,8.60
2022,10,02,07,25,8.60
2022,10,02,07,26,8.60
2022,10,02,07,27,8.60
2022,10,02,07,28,8.60
2022,10,02,07,29,8.60
2022,10,02,07,30,8.60
2022,10,02,07,31,8.60
2022,10,02,07,32,8.70
2022,10,02,07,33,8.70
2022,10,02,07,34,8.70
2022,10,02,07,35,8.70
2022,10,02,07,36,8.70
2022,10,02,07,37,8.70
2022,10,02,07,38,8.70
2022,10,02,07,39,8.70
2022,10,02,07,40,8.80
2022,10,02,07,41,8.70
2022,10,02,07,42,8.80
2022,10,02,07,43,8.90
2022,10,02,07,44,8.90
2022,10,02,07,45,9.00
2022,10,02,07,46,9.00
2022,10,02,07,47,9.10
2022,10,02,07,48,9.10
2022,10,02,07,49,9.20
2022,10,02,07,50,9.20
2022,10,02,07,51,9.20
2022,10,02,07,52,9.30
2022,10,02,07,53,9.30
2022,10,02,07,54,9.30
2022,10,02,07,55,9.30
2022,10,02,07,56,9.30
2022,10,02,07,57,9.30
2022,10,02,07,58,9.40
2022,10,02,07,59,9.40
2022,10,02,08,00,9.40
2022,10,02,08,01,9.50
2022,10,02,08,02,9.50
2022,10,02,08,03,9.60
2022,10,02,08,04,9.60
2022,10,02,08,05,9.70
2022,10,02,08,06,9.70
2022,10,02,08,07,9.80
2022,10,02,08,08,9.80
2022,10,02,08,09,9.80
2022,10,02,08,10,9.80
2022,10,02,08,11,9.90
2022,10,02,08,12,9.90
2022,10,02,08,13,9.90
2022,10,02,08,14,10.00
2022,10,02,08,15,10.00
2022,10,02,08,16,10.10
2022,10,02,08,17,10.20
2022,10,02,08,18,10.30
2022,10,02,08,19,10.40
2022,10,02,08,20,10.40
2022,10,02,08,21,10.50
2022,10,02,08,22,10.60
2022,10,02,08,23,10.70
2022,10,02,08,24,10.80
2022,10,02,08,25,10.80
2022,10,02,08,26,10.90
2022,10,02,08,27,11.00
2022,10,02,08,28,11.10
2022,10,02,08,29,11.10
2022,10,02,08,30,11.20
2022,10,02,08,31,11.30
2022,10,02,08,32,11.30
2022,10,02,08,33,11.40
2022,10,02,08,34,11.40
2022,10,02,08,35,11.50
2022,10,02,08,36,11.60
2022,10,02,08,37,11.70
2022,10,02,08,38,11.70
2022,10,02,08,39,11.80
2022,10,02,08,40,11.90
2022,10,02,08,41,12.00
2022,10,02,08,42,12.10
2022,10,02,08,43,12.20
2022,10,02,08,44,12.20
2022,10,02,08,45,12.30
2022,10,02,08,46,12.40
2022,10,02,08,47,12.40
2022,10,02,08,48,12.50
2022,10,02,08,49,12.50
2022,10,02,08,50,12.60
2022,10,02,08,51,12.60
2022,10,02,08,52,12.70
2022,10,02,08,53,12.70
2022,10,02,08,54,12.80
2022,10,02,08,55,12.80
2022,10,02,08,56,12.90
2022,10,02,08,57,12.90
2022,10,02,08,58,13.00
2022,10,02,08,59,13.00
2022,10,02,09,00,13.10
2022,10,02,09,01,13.10
2022,10,02,09,02,13.20
2022,10,02,09,03,13.30
2022,10,02,09,04,13.30
2022,10,02,09,05,13.40
2022,10,02,09,06,13.40
2022,10,02,09,07,13.50
2022,10,02,09,08,13.60
2022,10,02,09,09,13.60
2022,10,02,09,10,13.70
2022,10,02,09,11,13.80
2022,10,02,09,12,13.80
2022,10,02,09,13,13.90
2022,10,02,09,14,14.00
2022,10,02,09,15,14.00
2022,10,02,09,16,14.10
2022,10,02,09,17,14.20
2022,10,02,09,18,14.20
2022,10,02,09,19,14.30
2022,10,02,09,20,14.40
2022,10,02,09,21,14.50
2022,10,02,09,22,14.50
2022,10,02,09,23,14.60
2022,10,02,09,24,14.70
2022,10,02,09,25,14.70
2022,10,02,09,26,14.80
2022,10,02,09,27,14.90
2022,10,02,09,28,14.90
2022,10,02,09,29,15.00
2022,10,02,09,30,15.00
2022,10,02,09,31,15.10
2022,10,02,09,32,15.10
2022,10,02,09,33,15.20
2022,10,02,09,34,15.20
2022,10,02,09,35,15.30
2022,10,02,09,36,15.30
2022,10,02,09,37,15.40
2022,10,02,09,38,15.50
2022,10,02,09,39,15.50
2022,10,02,09,40,15.60
2022,10,02,09,41,15.70
2022,10,02,09,42,15.70
2022,10,02,09,43,15.80
2022,10,02,09,44,15.90
2022,10,02,09,45,15.90
2022,10,02,09,46,16.00
2022,10,02,09,47,16.10
2022,10,02,09,48,16.10
2022,10,02,09,49,16.20
2022,10,02,09,50,16.20
2022,10,02,09,51,16.30
2022,10,02,09,52,16.40
2022,10,02,09,53,16.40
2022,10,02,09,54,16.50
2022,10,02,09,55,16.50
2022,10,02,09,56,16.60
2022,10,02,09,57,16.60
2022,10,02,09,58,16.70
2022,10,02,09,59,16.70
2022,10,02,10,00,16.80
2022,10,02,10,01,16.80
2022,10,02,10,02,16.90
2022,10,02,10,03,16.90
2022,10,02,10,04,17.00
2022,10,02,10,05,17.10
2022,10,02,10,06,17.10
2022,10,02,10,07,17.20
2022,10,02,10,08,17.20
2022,10,02,10,09,17.30
2022,10,02,10,10,17.30
2022,10,02,10,11,17.40
2022,10,02,10,12,17.40
2022,10,02,10,13,17.50
2022,10,02,10,14,17.60
2022,10,02,10,15,17.60
2022,10,02,10,16,17.70
2022,10,02,10,17,17.70
2022,10,02,10,18,17.80
2022,10,02,10,19,17.80
2022,10,02,10,20,17.90
2022,10,02,10,21,17.90
2022,10,02,10,22,18.00
2022,10,02,10,23,18.10
2022,10,02,10,24,18.20
2022,10,02,10,25,18.30
2022,10,02,10,26,18.30
2022,10,02,10,27,18.40
2022,10,02,10,28,18.40
2022,10,02,10,29,18.50
2022,10,02,10,30,18.60
2022,10,02,10,31,18.60
2022,10,02,10,32,18.60
2022,10,02,10,33,18.70
2022,10,02,10,34,18.70
2022,10,02,10,35,18.70
2022,10,02,10,36,18.80
2022,10,02,10,37,18.80
2022,10,02,10,38,18.90
2022,10,02,10,39,18.90
2022,10,02,10,40,19.00
2022,10,02,10,41,19.00
2022,10,02,10,42,19.10
2022,10,02,10,43,19.10
2022,10,02,10,44,19.10
2022,10,02,10,45,19.20
2022,10,02,10,46,19.20
2022,10,02,10,47,19.30
2022,10,02,10,48,19.30
2022,10,02,10,49,19.30
2022,10,02,10,50,19.40
2022,10,02,10,51,19.40
2022,10,02,10,52,19.40
2022,10,02,10,53,19.50
2022,10,02,10,54,19.60
2022,10,02,10,55,19.60
2022,10,02,10,56,19.70
2022,10,02,10,57,19.70
2022,10,02,10,58,19.80
2022,10,02,10,59,19.80
2022,10,02,11,00,19.80
2022,10,02,11,01,19.80
2022,10,02,11,02,19.80
2022,10,02,11,03,19.90
2022,10,02,11,04,20.00
2022,10,02,11,05,20.00
2022,10,02,11,06,20.00
2022,10,02,11,07,20.10
2022,10,02,11,08,20.10
2022,10,02,11,09,20.10
2022,10,02,11,10,20.10
2022,10,02,11,11,20.20
2022,10,02,11,12,20.20
2022,10,02,11,13,20.20
2022,10,02,11,14,20.20
2022,10,02,11,15,20.20
2022,10,02,11,16,20.30
2022,10,02,11,17,20.30
2022,10,02,11,18,20.30
2022,10,02,11,19,20.40
2022,10,02,11,20,20.40
2022,10,02,11,21,20.40
2022,10,02,11,22,20.40
2022,10,02,11,23,20.50
2022,10,02,11,24,20.50
2022,10,02,11,25,20.60
2022,10,02,11,26,20.60
2022,10,02,11,27,20.70
2022,10,02,11,28,20.70
2022,10,02,11,29,20.70
2022,10,02,11,30,20.80
2022,10,02,11,31,20.80
2022,10,02,11,32,20.90
2022,10,02,11,33,20.90
2022,10,02,11,34,21.00
2022,10,02,11,35,21.00
2022,10,02,11,36,21.10
2022,10,02,11,37,21.20
2022,10,02,11,38,21.20
2022,10,02,11,39,21.30
2022,10,02,11,40,21.40
2022,10,02,11,41,21.40
2022,10,02,11,42,21.50
2022,10,02,11,43,21.50
2022,10,02,11,44,21.60
2022,10,02,11,45,21.60
2022,10,02,11,46,21.60
2022,10,02,11,47,21.60
2022,10,02,11,48,21.60
2022,10,02,11,49,21.70
2022,10,02,11,50,21.70
2022,10,02,11,51,21.70
2022,10,02,11,52,21.70
2022,10,02,11,53,21.70
2022,10,02,11,54,21.80
2022,10,02,11,55,21.80
2022,10,02,11,56,21.80
2022,10,02,11,57,21.90
2022,10,02,11,58,21.90
2022,10,02,11,59,22.00
2022,10,02,12,00,22.00
2022,10,02,12,01,22.00
2022,10,02,12,02,22.10
2022,10,02,12,03,22.10
2022,10,02,12,04,22.20
2022,10,02,12,05,22.20
2022,10,02,12,06,22.20
2022,10,02,12,07,22.30
2022,10,02,12,08,22.30
2022,10,02,12,09,22.40
2022,10,02,12,10,22.40
2022,10,02,12,11,22.50
2022,10,02,12,12,22.50
2022,10,02,12,13,22.60
2022,10,02,12,14,22.60
2022,10,02,12,15,22.70
2022,10,02,12,16,22.80
2022,10,02,12,17,22.80
2022,10,02,12,18,22.90
2022,10,02,12,19,23.00
2022,10,02,12,20,23.10
2022,10,02,12,21,23.10
2022,10,02,12,22,23.20
2022,10,02,12,23,23.20
2022,10,02,12,24,23.20
2022,10,02,12,25,23.20
2022,10,02,12,26,23.20
2022,10,02,12,27,23.20
2022,10,02,12,28,23.20
2022,10,02,12,29,23.20
2022,10,02,12,30,23.20
2022,10,02,12,31,23.20
2022,10,02,12,32,23.20
2022,10,02,12,33,23.20
2022,10,02,12,34,23.20
2022,10,02,12,35,23.20
2022,10,02,12,36,23.20
2022,10,02,12,37,23.20
2022,10,02,12,38,23.20
2022,10,02,12,39,23.20
2022,10,02,12,40,23.20
2022,10,02,12,41,23.20
2022,10,02,12,42,23.30
2022,10,02,12,43,23.30
2022,10,02,12,44,23.30
2022,10,02,12,45,23.40
2022,10,02,12,46,23.40
2022,10,02,12,47,23.40
2022,10,02,12,48,23.50
2022,10,02,12,49,23.50
2022,10,02,12,50,23.50
2022,10,02,12,51,23.50
2022,10,02,12,52,23.50
2022,10,02,12,53,23.50
2022,10,02,12,54,23.50
2022,10,02,12,55,23.50
2022,10,02,12,56,23.60
2022,10,02,12,57,23.60
2022,10,02,12,58,23.60
2022,10,02,12,59,23.70
2022,10,02,13,00,23.70
2022,10,02,13,01,23.70
2022,10,02,13,02,23.80
2022,10,02,13,03,23.80
2022,10,02,13,04,23.90
2022,10,02,13,05,23.90
2022,10,02,13,06,24.00
2022,10,02,13,07,24.00
2022,10,02,13,08,24.10
2022,10,02,13,09,24.10
2022,10,02,13,10,24.10
2022,10,02,13,11,24.20
2022,10,02,13,12,24.20
2022,10,02,13,13,24.30
2022,10,02,13,14,24.30
2022,10,02,13,15,24.30
2022,10,02,13,16,24.30
2022,10,02,13,17,24.40
2022,10,02,13,18,24.40
2022,10,02,13,19,24.40
2022,10,02,13,20,24.50
2022,10,02,13,21,24.50
2022,10,02,13,22,24.50
2022,10,02,13,23,24.50
2022,10,02,13,24,24.50
2022,10,02,13,25,24.50
2022,10,02,13,26,24.50
2022,10,02,13,27,24.50
2022,10,02,13,28,24.50
2022,10,02,13,29,24.50
2022,10,02,13,30,24.60
2022,10,02,13,31,24.60
2022,10,02,13,32,24.60
2022,10,02,13,33,24.60
2022,10,02,13,34,24.60
2022,10,02,13,35,24.60
2022,10,02,13,36,24.60
2022,10,02,13,37,24.60
2022,10,02,13,38,24.60
2022,10,02,13,39,24.70
2022,10,02,13,40,24.70
2022,10,02,13,41,24.70
2022,10,02,13,42,24.70
2022,10,02,13,43,24.70
2022,10,02,13,44,24.70
2022,10,02,13,45,24.70
2022,10,02,13,46,24.80
2022,10,02,13,47,24.80
2022,10,02,13,48,24.90
2022,10,02,13,49,24.90
2022,10,02,13,50,25.00
2022,10,02,13,51,25.10
2022,10,02,13,52,25.10
2022,10,02,13,53,25.20
2022,10,02,13,54,25.20
2022,10,02,13,55,25.20
2022,10,02,13,56,25.20
2022,10,02,13,57,25.20
2022,10,02,13,58,25.20
2022,10,02,13,59,25.20
2022,10,02,14,00,25.20
2022,10,02,14,01,25.20
2022,10,02,14,02,25.20
2022,10,02,14,03,25.20
2022,10,02,14,04,25.20
2022,10,02,14,05,25.30
2022,10,02,14,06,25.30
2022,10,02,14,07,25.30
2022,10,02,14,08,25.30
2022,10,02,14,09,25.20
2022,10,02,14,10,25.20
2022,10,02,14,11,25.20
2022,10,02,14,12,25.20
2022,10,02,14,13,25.20
2022,10,02,14,14,25.20
2022,10,02,14,15,25.20
2022,10,02,14,16,25.30
2022,10,02,14,17,25.30
2022,10,02,14,18,25.30
2022,10,02,14,19,25.30
2022,10,02,14,20,25.40
2022,10,02,14,21,25.40
2022,10,02,14,22,25.40
2022,10,02,14,23,25.50
2022,10,02,14,24,25.50
2022,10,02,14,25,25.50
2022,10,02,14,26,25.50
2022,10,02,14,27,25.40
2022,10,02,14,28,25.40
2022,10,02,14,29,25.50
2022,10,02,14,30,25.50
2022,10,02,14,31,25.50
2022,10,02,14,32,25.50
2022,10,02,14,33,25.50
2022,10,02,14,34,25.40
2022,10,02,14,35,25.40
2022,10,02,14,36,25.40
2022,10,02,14,37,25.50
2022,10,02,14,38,25.50
2022,10,02,14,39,25.60
2022,10,02,14,40,25.50
2022,10,02,14,41,25.50
2022,10,02,14,42,25.50
2022,10,02,14,43,25.60
2022,10,02,14,44,25.60
2022,10,02,14,45,25.60
2022,10,02,14,46,25.60
2022,10,02,14,47,25.70
2022,10,02,14,48,25.70
2022,10,02,14,49,25.80
2022,10,02,14,50,25.70
2022,10,02,14,51,25.70
2022,10,02,14,52,25.70
2022,10,02,14,53,25.70
2022,10,02,14,54,25.70
2022,10,02,14,55,25.70
2022,10,02,14,56,25.80
2022,10,02,14,57,25.80
2022,10,02,14,58,25.80
2022,10,02,14,59,25.80
2022,10,02,15,00,25.80
2022,10,02,15,01,25.80
2022,10,02,15,02,25.80
2022,10,02,15,03,25.90
2022,10,02,15,04,25.90
2022,10,02,15,05,25.90
2022,10,02,15,06,26.00
2022,10,02,15,07,26.00
2022,10,02,15,08,26.10
2022,10,02,15,09,26.10
2022,10,02,15,10,26.10
2022,10,02,15,11,26.20
2022,10,02,15,12,26.20
2022,10,02,15,13,26.30
2022,10,02,15,14,26.30
2022,10,02,15,15,26.30
2022,10,02,15,16,26.30
2022,10,02,15,17,26.30
2022,10,02,15,18,26.30
2022,10,02,15,19,26.30
2022,10,02,15,20,26.20
2022,10,02,15,21,26.20
2022,10,02,15,22,26.20
2022,10,02,15,23,26.20
2022,10,02,15,24,26.20
2022,10,02,15,25,26.10
2022,10,02,15,26,26.10
2022,10,02,15,27,26.10
2022,10,02,15,28,26.10
2022,10,02,15,29,26.10
2022,10,02,15,30,26.10
2022,10,02,15,31,26.10
2022,10,02,15,32,26.10
2022,10,02,15,33,26.10
2022,10,02,15,34,26.10
2022,10,02,15,35,26.10
2022,10,02,15,36,26.20
2022,10,02,15,37,26.20
2022,10,02,15,38,26.20
2022,10,02,15,39,26.30
2022,10,02,15,40,26.30
2022,10,02,15,41,26.30
2022,10,02,15,42,26.30
2022,10,02,15,43,26.30
2022,10,02,15,44,26.30
2022,10,02,15,45,26.20
2022,10,02,15,46,26.20
2022,10,02,15,47,26.20
2022,10,02,15,48,26.30
2022,10,02,15,49,26.30
2022,10,02,15,50,26.40
2022,10,02,15,51,26.40
2022,10,02,15,52,26.50
2022,10,02,15,53,26.50
2022,10,02,15,54,26.60
2022,10,02,15,55,26.60
2022,10,02,15,56,26.60
2022,10,02,15,57,26.60
2022,10,02,15,58,26.60
2022,10,02,15,59,26.60
2022,10,02,16,00,26.60
2022,10,02,16,01,26.70
2022,10,02,16,02,26.70
2022,10,02,16,03,26.70
2022,10,02,16,04,26.70
2022,10,02,16,05,26.70
2022,10,02,16,06,26.80
2022,10,02,16,07,26.80
2022,10,02,16,08,26.80
2022,10,02,16,09,26.80
2022,10,02,16,10,26.80
2022,10,02,16,11,26.80
2022,10,02,16,12,26.80
2022,10,02,16,13,26.80
2022,10,02,16,14,26.80
2022,10,02,16,15,26.80
2022,10,02,16,16,26.80
2022,10,02,16,17,26.80
2022,10,02,16,18,26.80
2022,10,02,16,19,26.80
2022,10,02,16,20,26.80
2022,10,02,16,21,26.80
2022,10,02,16,22,26.80
2022,10,02,16,23,26.80
2022,10,02,16,24,26.80
2022,10,02,16,25,26.80
2022,10,02,16,26,26.70
2022,10,02,16,27,26.70
2022,10,02,16,28,26.70
2022,10,02,16,29,26.70
2022,10,02,16,30,26.70
2022,10,02,16,31,26.70
2022,10,02,16,32,26.70
2022,10,02,16,33,26.70
2022,10,02,16,34,26.70
2022,10,02,16,35,26.70
2022,10,02,16,36,26.70
2022,10,02,16,37,26.70
2022,10,02,16,38,26.70
2022,10,02,16,39,26.70
2022,10,02,16,40,26.70
2022,10,02,16,41,26.70
2022,10,02,16,42,26.70
2022,10,02,16,43,26.70
2022,10,02,16,44,26.70
2022,10,02,16,45,26.70
2022,10,02,16,46,26.60
2022,10,02,16,47,26.60
2022,10,02,16,48,26.60
2022,10,02,16,49,26.60
2022,10,02,16,50,26.60
2022,10,02,16,51,26.60
2022,10,02,16,52,26.60
2022,10,02,16,53,26.60
2022,10,02,16,54,26.60
2022,10,02,16,55,26.60
2022,10,02,16,56,26.60
2022,10,02,16,57,26.60
2022,10,02,16,58,26.60
2022,10,02,16,59,26.50
2022,10,02,17,00,26.50
2022,10,02,17,01,26.50
2022,10,02,17,02,26.50
2022,10,02,17,03,26.50
2022,10,02,17,04,26.50
2022,10,02,17,05,26.40
2022,10,02,17,06,26.40
2022,10,02,17,07,26.40
2022,10,02,17,08,26.40
2022,10,02,17,09,26.40
2022,10,02,17,10,26.40
2022,10,02,17,11,26.40
2022,10,02,17,12,26.40
2022,10,02,17,13,26.40
2022,10,02,17,14,26.40
2022,10,02,17,15,26.40
2022,10,02,17,16,26.40
2022,10,02,17,17,26.40
2022,10,02,17,18,26.40
2022,10,02,17,19,26.40
2022,10,02,17,20,26.40
2022,10,02,17,21,26.30
2022,10,02,17,22,26.30
2022,10,02,17,23,26.30
2022,10,02,17,24,26.30
2022,10,02,17,25,26.30
2022,10,02,17,26,26.30
2022,10,02,17,27,26.30
2022,10,02,17,28,26.20
2022,10,02,17,29,26.20
2022,10,02,17,30,26.20
2022,10,02,17,31,26.20
2022,10,02,17,32,26.20